User made mazes table

Below you can find all mazes made by visitors in a table.
All made mazes will be moderated, to keep failed attempts and mazes which were not seriously made out of the list. In the column 'Mod' the moderated mazes are marked with 'y' and the mazes which are not yet moderated with 'n'.

Everyone can rate mazes by giving stars. You can do that two times: once during the maze and once after finishing the maze. The vote at the end of the maze counts for 4. So you have 5 votes in total. (You can't rate a maze you've made yourself).
You can choose one star (poor) up to 5 stars (excellent). You can find the average rating in this table.
You can also see the number of unique visitors who started the maze (column 'Starts') and the number of them who finished it (column 'Finished').
In the last column the successful finishes are represented by a percentage of the number of starts. This gives an indication of the difficulty of the maze. The lower the percentage, the more difficult the maze.

Look here for the table of official mazes.



2006 2007 2008 2009 2010 2011 2012 2013 2014 2015 2016 2017 2018 2019 2020 Pages: 1 2 3 4
Name maze
Sort ascending Sort descending
Maker
Sort ascending Sort descending
Description
 
Date made (CET)
Sort ascending Sort descending
Mod
 
Size
Sort ascending Sort descending
ratingratingratingratingrating
Sort ascending Sort descending
Starts
Sort ascending Sort descending
Finished
Sort ascending Sort descending
%
Sort ascending Sort descending
wwro 2020-01-07 20:20:34 yM 4444 2514
southpark2020freek 2020-01-20 13:47:04 yM 1 1815.6
spelletjesboekboanice2020-01-21 13:38:54 yL 22 120
Sleutel-tot-succesJesse Burger 2020-01-21 14:23:35 yL 55555 180
taalspelletjesgegert 2020-01-30 10:52:06 yM 333 9111.1
echolocatiejorieke 2020-01-31 14:22:51 yL 333 30
421245352 2020-02-04 21:06:24 yM 22 40
heydoolhofameliedfghjjhgfdsdfghjhgfsdtydsdyfddggfdd2020-02-06 16:40:46 yL 55555 90
doolhofnummerJouw naamGo crazy Go stupid2020-02-07 08:44:55 yM 55555 1616.3
kanjeNielsBring Greta to the klimatetop2020-02-09 15:16:22 yS 333 30
PandoraBas RijnardusPandora2020-02-10 13:29:08 yM 333 40
harkstan 2020-02-11 10:58:20 yM 55555 30
communicerenseppcxff2020-02-11 11:52:12 yM 1 40
Joodvalentina 2020-02-15 17:13:03 yS 333 40
SolayneChantal 2020-02-18 00:24:39 yM 333 20
3BWietsejn,b hjn 2020-02-19 17:12:21 yM 55555 50
massaratiTessvery fun2020-02-27 11:20:22 yXS 22 4375
manegebuitenwijckTessvery fun2020-02-27 11:25:06 yM 22 4250
grrmargo  2020-02-28 18:48:42 yS 22 4125
ChiroJijippekeMontana 2020-03-06 18:45:33 yM 4444 20
RuthMark 2020-03-07 13:02:15 yM 4444 20
DOELHOOFKARINAtest it now2020-03-08 16:04:51 yM 22 40
heelaldoolhof2Bram 2020-03-11 11:29:26 yM 4444 30
ruimtetje78simba 2020-03-13 11:45:58 yM 4444 30
vinddewegDaan Hoogstrasuper website2020-03-16 11:18:03 yL 4444 70
IiiiiiiCharles 2020-03-19 00:34:22 yM 333 10
kruiszoekenDvdV 2020-03-20 09:27:52 yM 55555 110
levenNoalove2020-03-20 12:19:21 yM 4444 20
POES_SAMBart 2020-03-23 07:52:58 yS 333 60
matthewgagematthewgagekkk2020-03-25 18:15:09 yM 1 20
BSO-DoolhofBo 2020-03-27 15:04:29 yM 55555 90
LivingMatyas 2020-03-28 18:20:47 yM 55555 60
PluizigBlauw 2020-03-29 23:04:09 yM 22 40
DadelsNaziema 2020-03-30 12:53:03 yM 333 20
pieffersarne 2020-04-02 11:07:45 yM 1 20
HannahdoolhofHannah 2020-04-03 11:00:50 yM 55555 1516.7
paaseiloeka 2020-04-03 20:33:34 yM 333 30
netflixthijs 2020-04-03 21:55:36 yM 1 40
Coronamehjah 2020-04-04 16:14:26 yM 22 8112.5
TheFirstReallivegamer98Layer for layer and don't turn around!2020-04-04 18:49:52 yM 4444 10
TheSecondReallivegamer98So many ways to go and so many ways back to the entrence.2020-04-04 18:56:04 yM 333 2150
rpwkr 2020-04-04 21:22:19 yM 333 40
DiannneMatthias 2020-04-12 14:04:33 yM 22 20
TriwardKatlyn Bonner 2020-04-13 06:30:18 yL 1 20
Lydia1Lydia 2020-04-13 11:57:52 yM 22 20
niethaalbaarDaanVery difficult2020-04-14 11:16:05 yXL 4444 50
superlastigDaan 2020-04-14 11:52:21 yM 4444 2150
SidleerwinkelSidthis is my maze you can play it but you don't have to (preferably do just do it)2020-04-14 13:07:09 yXL 4444 9111.1
dizzydoolhofGuusje 2020-04-14 13:10:19 yM 333 60
leerwinkelMareeasy2020-04-14 13:17:13 yM 333 50
Pages: 1 2 3 4




Copyright © 2005 - 2019 VirtuWorld.net
All rights reserved